When you browse on this site, cookies collect data to enhance your experience and personalize the content and advertising you see.
Visit our Privacy Policy to learn more. By continuing to use the site, you agree to this use of cookies and data.
  • en France
  • Liste des pays
  • À 7 jours
  • Température de l'eau
  • Carte satellitaire
  • Carte météo
  • Widgets météo
  • user-avatar
    Se connecter

    Météo par heure à Morgi

    Ce jour, 17 Février, Dimanche

    Heure Température Précipitation Vent Pression Humidité
    00:00 -2°C° 0 mm 5 m/s 741 mmHg 79%
    01:00 -1°C° 0 mm 5 m/s 741 mmHg 79%
    02:00 -2°C° 0 mm 6 m/s 740 mmHg 77%
    03:00 -2°C° 0 mm 6 m/s 740 mmHg 79%
    04:00 -2°C° 0 mm 6 m/s 739 mmHg 81%
    05:00 -2°C° 0 mm 6 m/s 739 mmHg 83%
    06:00 -2°C° 0 mm 6 m/s 739 mmHg 85%
    07:00 -2°C° 0 mm 6 m/s 739 mmHg 87%
    08:00 -2°C° 0 mm 6 m/s 739 mmHg 90%
    09:00 -2°C° 0 mm 6 m/s 739 mmHg 91%
    10:00 -1°C° 0 mm 6 m/s 739 mmHg 93%
    11:00 -1°C° 0 mm 6 m/s 739 mmHg 95%
    12:00 -1°C° 0 mm 6 m/s 739 mmHg 91%
    13:00 +1°C° 0 mm 6 m/s 739 mmHg 86%
    14:00 +1°C° 0 mm 6 m/s 740 mmHg 82%
    15:00 -1°C° 0 mm 6 m/s 740 mmHg 79%
    16:00 -2°C° 0 mm 6 m/s 741 mmHg 76%
    17:00 -2°C° 0 mm 6 m/s 741 mmHg 73%
    18:00 -3°C° 0 mm 6 m/s 741 mmHg 76%
    19:00 -4°C° 0 mm 6 m/s 742 mmHg 78%
    20:00 -4°C° 0 mm 5 m/s 742 mmHg 81%
    21:00 -5°C° 0 mm 5 m/s 743 mmHg 82%
    22:00 -5°C° 0 mm 5 m/s 743 mmHg 83%
    23:00 -5°C° 0 mm 4 m/s 744 mmHg 85%

    Demain, 18 Février, Lundi

    Heure Température Précipitation Vent Pression Humidité
    00:00 -5°C° 0 mm 4 m/s 745 mmHg 85%
    01:00 -5°C° 0 mm 4 m/s 745 mmHg 85%
    02:00 -7°C° 0 mm 4 m/s 746 mmHg 86%
    03:00 -7°C° 0 mm 4 m/s 746 mmHg 86%
    04:00 -7°C° 0 mm 4 m/s 746 mmHg 87%
    05:00 -8°C° 0 mm 4 m/s 747 mmHg 87%
    06:00 -7°C° 0 mm 3 m/s 747 mmHg 87%
    07:00 -7°C° 0 mm 3 m/s 748 mmHg 88%
    08:00 -7°C° 0 mm 3 m/s 748 mmHg 88%
    09:00 -7°C° 0 mm 3 m/s 749 mmHg 85%
    10:00 -6°C° 0 mm 3 m/s 749 mmHg 82%
    11:00 -5°C° 0 mm 3 m/s 750 mmHg 78%
    12:00 -5°C° 0 mm 3 m/s 750 mmHg 77%
    13:00 -4°C° 0 mm 3 m/s 750 mmHg 75%
    14:00 -4°C° 0 mm 3 m/s 750 mmHg 73%
    15:00 -4°C° 0 mm 2 m/s 750 mmHg 76%
    16:00 -4°C° 0 mm 2 m/s 750 mmHg 79%
    17:00 -3°C° 0 mm 1 m/s 750 mmHg 82%
    18:00 -4°C° 0 mm 1 m/s 751 mmHg 82%
    19:00 -5°C° 0 mm 0 m/s 751 mmHg 83%
    20:00 -5°C° 0 mm 0 m/s 751 mmHg 83%
    21:00 -4°C° 0 mm 1 m/s 751 mmHg 83%
    22:00 -4°C° 0 mm 1 m/s 751 mmHg 83%
    23:00 -7°C° 0 mm 2 m/s 751 mmHg 83%

    Après-demain, 19 Février, Mardi

    Heure Température Précipitation Vent Pression Humidité
    00:00 -7°C° 0 mm 2 m/s 751 mmHg 83%
    01:00 -7°C° 0 mm 2 m/s 751 mmHg 83%
    02:00 -8°C° 0 mm 3 m/s 750 mmHg 83%
    03:00 -8°C° 0 mm 3 m/s 750 mmHg 83%
    04:00 -9°C° 0 mm 4 m/s 750 mmHg 83%
    05:00 -9°C° 0 mm 4 m/s 749 mmHg 83%
    06:00 -9°C° 0 mm 4 m/s 749 mmHg 83%
    07:00 -8°C° 0 mm 4 m/s 749 mmHg 82%
    08:00 -8°C° 0 mm 4 m/s 748 mmHg 82%
    09:00 -7°C° 0 mm 5 m/s 748 mmHg 79%
    10:00 -6°C° 0 mm 5 m/s 748 mmHg 76%
    11:00 -4°C° 0 mm 6 m/s 747 mmHg 73%
    12:00 -4°C° 0 mm 6 m/s 747 mmHg 72%
    13:00 -3°C° 0 mm 6 m/s 746 mmHg 71%
    14:00 -2°C° 0 mm 6 m/s 745 mmHg 70%
    15:00 -3°C° 0 mm 6 m/s 745 mmHg 72%
    16:00 -3°C° 0 mm 6 m/s 744 mmHg 73%
    17:00 -4°C° 0 mm 6 m/s 743 mmHg 74%
    18:00 -4°C° 0 mm 6 m/s 743 mmHg 75%
    19:00 -4°C° 0 mm 6 m/s 742 mmHg 75%
    20:00 -4°C° 0 mm 6 m/s 741 mmHg 75%
    21:00 -4°C° 0 mm 6 m/s 741 mmHg 78%
    22:00 -4°C° 0 mm 6 m/s 740 mmHg 81%
    23:00 -4°C° 0 mm 6 m/s 740 mmHg 84%

    20 Février, Mercredi

    Heure Température Précipitation Vent Pression Humidité
    00:00 -3°C° 0 mm 6 m/s 739 mmHg 86%
    01:00 -3°C° 0 mm 6 m/s 739 mmHg 89%
    02:00 -2°C° 0 mm 6 m/s 738 mmHg 92%
    03:00 -1°C° 0.2 mm 5 m/s 738 mmHg 92%
    04:00 -1°C° 0.2 mm 5 m/s 738 mmHg 92%
    05:00 -1°C° 0.2 mm 5 m/s 737 mmHg 93%
    06:00 -1°C° 0 mm 5 m/s 737 mmHg 93%
    07:00 -1°C° 0 mm 5 m/s 737 mmHg 93%
    08:00 -1°C° 0 mm 4 m/s 737 mmHg 93%
    09:00 0°C° 0 mm 5 m/s 737 mmHg 93%
    10:00 0°C° 0 mm 5 m/s 737 mmHg 93%
    11:00 0°C° 0 mm 5 m/s 737 mmHg 93%
    12:00 -1°C° 0.1 mm 6 m/s 737 mmHg 91%
    13:00 -1°C° 0.1 mm 6 m/s 737 mmHg 90%
    14:00 +1°C° 0.1 mm 6 m/s 736 mmHg 88%
    15:00 -1°C° 0.1 mm 6 m/s 736 mmHg 88%
    16:00 -1°C° 0.1 mm 6 m/s 736 mmHg 88%
    17:00 -1°C° 0.1 mm 7 m/s 736 mmHg 88%
    18:00 -1°C° 0.2 mm 6 m/s 736 mmHg 86%
    19:00 -1°C° 0.2 mm 5 m/s 736 mmHg 84%
    20:00 -2°C° 0.2 mm 5 m/s 736 mmHg 82%
    21:00 -4°C° 0 mm 5 m/s 737 mmHg 80%
    22:00 -5°C° 0 mm 6 m/s 737 mmHg 77%
    23:00 -5°C° 0 mm 6 m/s 737 mmHg 74%

    21 Février, Jeudi

    Heure Température Précipitation Vent Pression Humidité
    00:00 -6°C° 0 mm 6 m/s 737 mmHg 74%
    01:00 -6°C° 0 mm 6 m/s 738 mmHg 74%
    02:00 -6°C° 0 mm 6 m/s 738 mmHg 74%
    03:00 -7°C° 0 mm 7 m/s 738 mmHg 74%
    04:00 -7°C° 0 mm 7 m/s 739 mmHg 74%
    05:00 -7°C° 0 mm 7 m/s 739 mmHg 74%
    06:00 -8°C° 0 mm 8 m/s 739 mmHg 72%
    07:00 -10°C° 0 mm 8 m/s 740 mmHg 70%
    08:00 -10°C° 0 mm 8 m/s 741 mmHg 67%
    09:00 -10°C° 0 mm 8 m/s 742 mmHg 66%
    10:00 -10°C° 0 mm 8 m/s 742 mmHg 64%
    11:00 -8°C° 0 mm 8 m/s 743 mmHg 63%
    12:00 -8°C° 0 mm 8 m/s 744 mmHg 63%
    13:00 -8°C° 0 mm 7 m/s 744 mmHg 63%
    14:00 -8°C° 0 mm 7 m/s 745 mmHg 62%
    15:00 -8°C° 0 mm 6 m/s 745 mmHg 64%
    16:00 -9°C° 0 mm 6 m/s 745 mmHg 66%
    17:00 -8°C° 0 mm 5 m/s 746 mmHg 67%
    18:00 -9°C° 0 mm 4 m/s 746 mmHg 69%
    19:00 -9°C° 0 mm 4 m/s 747 mmHg 71%
    20:00 -9°C° 0 mm 4 m/s 747 mmHg 73%
    21:00 -9°C° 0 mm 3 m/s 748 mmHg 74%
    22:00 -9°C° 0 mm 3 m/s 748 mmHg 75%
    23:00 -9°C° 0 mm 3 m/s 748 mmHg 77%

    22 Février, Vendredi

    Heure Température Précipitation Vent Pression Humidité
    00:00 -9°C° 0 mm 3 m/s 748 mmHg 78%
    01:00 -9°C° 0 mm 3 m/s 748 mmHg 78%
    02:00 -10°C° 0 mm 3 m/s 749 mmHg 79%
    03:00 -10°C° 0 mm 3 m/s 749 mmHg 79%
    04:00 -10°C° 0 mm 3 m/s 749 mmHg 79%
    05:00 -10°C° 0 mm 3 m/s 749 mmHg 79%
    06:00 -10°C° 0 mm 3 m/s 750 mmHg 77%
    07:00 -11°C° 0 mm 4 m/s 750 mmHg 75%
    08:00 -11°C° 0 mm 4 m/s 751 mmHg 73%
    09:00 -11°C° 0 mm 4 m/s 751 mmHg 68%
    10:00 -11°C° 0 mm 5 m/s 752 mmHg 63%
    11:00 -11°C° 0 mm 5 m/s 752 mmHg 57%
    12:00 -10°C° 0 mm 5 m/s 753 mmHg 56%
    13:00 -8°C° 0 mm 5 m/s 753 mmHg 56%
    14:00 -8°C° 0 mm 5 m/s 753 mmHg 55%
    15:00 -8°C° 0 mm 5 m/s 754 mmHg 58%
    16:00 -8°C° 0 mm 5 m/s 754 mmHg 60%
    17:00 -8°C° 0 mm 4 m/s 755 mmHg 63%
    18:00 -9°C° 0 mm 4 m/s 756 mmHg 65%
    19:00 -10°C° 0 mm 5 m/s 756 mmHg 67%
    20:00 -11°C° 0 mm 5 m/s 757 mmHg 68%
    21:00 -11°C° 0 mm 5 m/s 757 mmHg 69%
    22:00 -10°C° 0 mm 4 m/s 758 mmHg 69%
    23:00 -11°C° 0 mm 4 m/s 758 mmHg 70%
    Voir plus